"Pseudo-MPEC" for C2YKNM2

Created 2020 Aug 6 7:07:02 UT using Find_Orb

Click here for an explanation of pseudo-MPECs

 
 Astrometry: 
     C2YKNM2  C2020 07 30.33685 22 14 10.12 +08 19 57.1    ~7U8q 21.6 GVNEOCPG96
     C2YKNM2  C2020 07 30.34405 22 14 10.73 +08 19 53.5    ~7U8q 21.4 GVNEOCPG96
     C2YKNM2  C2020 07 30.35126 22 14 11.32 +08 19 51.4    ~7U8q 20.7 GVNEOCPG96
     C2YKNM2  C2020 07 30.35848 22 14 12.01 +08 19 48.5    ~7U8q 21.2 GVNEOCPG96
     C2YKNM2  C2020 07 30.42490 22 14 17.62 +08 19 21.0    ~7UAq 20.7 GVNEOCPI52
     C2YKNM2  C2020 07 30.42911 22 14 17.98 +08 19 19.2    ~7UAq 20.8 GVNEOCPI52
     C2YKNM2  C2020 07 30.43332 22 14 18.34 +08 19 17.5    ~7UAq 20.7 GVNEOCPI52
     C2YKNM2  C2020 07 30.43753 22 14 18.69 +08 19 15.6    ~7UAq 20.8 GVNEOCPI52
     C2YKNM2 KC2020 07 30tZCudqIT9I$Y@ML[J#FjQb-$.$?CLgUAstrometryFGRu2JE@=nxL01
     C2YKNM2 KC2020 07 30PiKJOZJ@e3'Cu_br1PNWwRc*Q)!'QC-.m\hrVS+]vZB9-SC[dt;qL01
     C2YKNM2 KC2020 07 30^FHAGIredacted;SEVa9l)1I\p`2*)%k6HL!CBr[htiwKBB[]5(fL01
     C2YKNM2 KC2020 07 30QJ75/tn1='f:I8ukfwZc#W`8:O@'PK]TcLc7Ad^EhRnZM9G$Md[*L01
     C2YKNM2  C2020 07 31.30022 22 15 39.28 +08 12 59.7    ~7V7q 21.0 GVNEOCPI52
     C2YKNM2  C2020 07 31.30526 22 15 39.73 +08 12 57.1    ~7V7q 21.0 GVNEOCPI52
     C2YKNM2  C2020 07 31.31029 22 15 40.26 +08 12 54.9    ~7V7q 20.0 GVNEOCPI52
     C2YKNM2 1C2020 07 31$tyT:Z^@=8)jVtetw#??UgT(!`S?B8D7R0K6Ph(32^.wX_Q$U27x658
     C2YKNM2 1C2020 07 313xR-@D+65]F`sQN!d;:L8r1mJjHB:Aj8Mw2q(H,?nF8ENmdi-6\Z658
     C2YKNM2 1C2020 07 31O^lQHkG8]tioEK=+jfQ\eZ*OclickI7@+KB4/h@66e]OI2rr1Dj=658
     C2YKNM2 1C2020 07 31hVHKu(U%,FEkrA'/qEe/t4AG-,kwIY-L^(.9-:`,,2Mfm\fe(QtV658
     C2YKNM2 1C2020 07 31@o#'!HX%\?Q@!_4/Tto:`CSYF;Q8rK-ORchereRdh4)?T+XhnfcV658
     C2YKNM2 pC2020 07 31``0@,N[8A-c(]pkiZfor3#dR1oeTcQpXMg7a%?B=`*ZCAPh013O.L01
     C2YKNM2 IC2020 07 31xDsRa%IA]explanationPbUgIZ,FQGPfDK2['hHVwFTpSouV72,SL01
     C2YKNM2 IC2020 07 31hM#3#.4-tXXjEmr3;N0;][H,0$CwdQekTA%W)m#vH%i@8^H#S_8lL01

Station data:
(658) Dominion Astrophysical Observatory  (N48.519987 W123.417000)
   Canada/BritColumbia. 1.82-m Plaskett reflector.
(G96) Mt. Lemmon Survey  (N32.442754 W110.788720)  US/Arizona.  Observers T.
   A. Pruyne, B. M. Africano, E. J. Christensen, G. A. Farneth, D. C. Fuls,
   A. R. Gibbs, A. D. Grauer, H. Gröller, J. A. Johnson, R. A. Kowalski, S.
   M. Larson, G. J. Leonard, D. Rankin, R. L. Seaman, F. C. Shelly. 1.5-m
   reflector + 10K CCD.
(I52) Steward Observatory, Mt. Lemmon Station  (N32.442547 W110.788920)
   US/Arizona.  Observers T. A. Pruyne, B. M. Africano, E. J. Christensen, G.
   A. Farneth, D. C. Fuls, A. R. Gibbs, A. D. Grauer, H. Gröller, J. A.
   Johnson, R. A. Kowalski, S. M. Larson, G. J. Leonard, D. Rankin, R. L.
   Seaman, F. C. Shelly. 1.0-m reflector + CCD.
(L01) Višnjan Observatory, Tičan  (N45.290900 E13.749300)  Croatia.
   Observers K. Korlević, E. Pettarin. Measurer E. Pettarin. 1.0-m f/2.9
   reflector + CCD.

Orbital elements:  C2YKNM2
   Perihelion 2020 Sep 24.244931 +/- 1.26 TT =  5:52:42 (JD 2459116.744931)
Epoch 2020 Jul 31.0 TT = JDT 2459061.5   Earth MOID: 0.2759   Ma: 0.0927
M 348.19418589 +/- 1.0              (J2000 ecliptic)          AutoNEOCP
n   0.21369949 +/- 0.0174           Peri.  199.54750 +/- 1.5
a   2.77076939 +/- 0.15             Node   160.79005 +/- 0.30
e   0.5409209 +/- 0.0214            Incl.   13.79471 +/- 0.25
P   4.61                   H 21.2   G  0.15   U 10.0  
q 1.27200228 +/- 0.0127    Q 4.26953650 +/- 0.314
From 23 observations 2020 July 30-31 (39.6 hr); mean residual 0".38
Residuals in arcseconds: 
200730 G96  .01-  .05+    200730 L01  .22+  .16+    200731 658  .26+  .01-    
200730 G96  .06-  .63-    200730 L01  .15-  .03-    200731 658  .18-  .03+    
200730 G96  .42-  .20+    200730 L01  .43-  .07-    200731 658  .45-  .14-    
200730 G96  .70+  .24+    200730 L01  .30-  .23-    200731 658  .58-  .50-    
200730 I52  .03+  .17+    200731 I52  .18-  .27+    200731 L01  .25+  .65+    
200730 I52  .03+  .13+    200731 I52  .03+  .06-    200731 L01  .56+  .64-    
200730 I52  .03+  .19+    200731 I52  1.4+  .01+    200731 L01  .75-  .39+    
200730 I52  .12-  .06+    200731 658  .09+  .14-    

Ephemerides (geocentric):
Date (UTC) HH   RA              Dec         delta   r     elong  mag " sig PA
---- -- -- --  -------------   -----------  ------ ------ -----  --- ---- ---
2020 08 06 07  22 25 11.799   +07 11 07.64  .41027 1.3825 149.1 21.0 13.4 166
2020 08 06 08  22 25 15.915   +07 10 34.51  .41000 1.3824 149.2 21.0 13.6 166
2020 08 06 09  22 25 20.032   +07 10 01.28  .40973 1.3822 149.2 21.0 13.8 166
2020 08 06 10  22 25 24.152   +07 09 27.94  .40946 1.3820 149.2 21.0 14.0 166
2020 08 06 11  22 25 28.274   +07 08 54.49  .40919 1.3818 149.3 21.0 14.2 166
2020 08 06 12  22 25 32.397   +07 08 20.94  .40892 1.3817 149.3 21.0 14.4 166
2020 08 06 13  22 25 36.522   +07 07 47.28  .40865 1.3815 149.3 21.0 14.6 166
2020 08 06 14  22 25 40.650   +07 07 13.52  .40838 1.3813 149.4 21.0 14.8 166
2020 08 06 15  22 25 44.779   +07 06 39.64  .40811 1.3811 149.4 21.0 15.1 166
2020 08 06 16  22 25 48.910   +07 06 05.67  .40784 1.3810 149.4 21.0 15.3 166
2020 08 06 17  22 25 53.044   +07 05 31.58  .40758 1.3808 149.4 21.0 15.5 166
2020 08 06 18  22 25 57.179   +07 04 57.39  .40731 1.3806 149.5 21.0 15.7 166
2020 08 06 19  22 26 01.316   +07 04 23.09  .40704 1.3804 149.5 21.0 16.0 166
2020 08 06 20  22 26 05.455   +07 03 48.68  .40677 1.3803 149.5 21.0 16.2 166
2020 08 06 21  22 26 09.596   +07 03 14.17  .40650 1.3801 149.6 21.0 16.4 166
2020 08 06 22  22 26 13.739   +07 02 39.54  .40623 1.3799 149.6 21.0 16.6 166
2020 08 06 23  22 26 17.884   +07 02 04.81  .40597 1.3797 149.6 21.0 16.9 166
2020 08 07 00  22 26 22.031   +07 01 29.98  .40570 1.3796 149.7 20.9 17.1 166
2020 08 07 01  22 26 26.180   +07 00 55.03  .40543 1.3794 149.7 20.9 17.3 166
2020 08 07 02  22 26 30.331   +07 00 19.98  .40517 1.3792 149.7 20.9 17.6 166
2020 08 07 03  22 26 34.484   +06 59 44.82  .40490 1.3791 149.8 20.9 17.8 166
2020 08 07 04  22 26 38.639   +06 59 09.55  .40463 1.3789 149.8 20.9 18.1 166
2020 08 07 05  22 26 42.795   +06 58 34.17  .40437 1.3787 149.8 20.9 18.3 166
2020 08 07 06  22 26 46.954   +06 57 58.69  .40410 1.3785 149.8 20.9 18.5 166
2020 08 07 07  22 26 51.115   +06 57 23.09  .40384 1.3784 149.9 20.9 18.8 166
2020 08 07 08  22 26 55.278   +06 56 47.39  .40357 1.3782 149.9 20.9 19.0 165
2020 08 07 09  22 26 59.443   +06 56 11.58  .40331 1.3780 149.9 20.9 19.3 165
2020 08 07 10  22 27 03.610   +06 55 35.66  .40304 1.3778 150.0 20.9 19.5 165
2020 08 07 11  22 27 07.778   +06 54 59.63  .40278 1.3777 150.0 20.9 19.8 165
2020 08 07 12  22 27 11.949   +06 54 23.49  .40251 1.3775 150.0 20.9 20.1 165
2020 08 07 13  22 27 16.122   +06 53 47.24  .40225 1.3773 150.1 20.9 20.3 165
2020 08 07 14  22 27 20.297   +06 53 10.89  .40198 1.3771 150.1 20.9 20.6 165
2020 08 07 15  22 27 24.474   +06 52 34.42  .40172 1.3770 150.1 20.9 20.8 165
2020 08 07 16  22 27 28.653   +06 51 57.85  .40146 1.3768 150.2 20.9 21.1 165
2020 08 07 17  22 27 32.834   +06 51 21.16  .40119 1.3766 150.2 20.9 21.4 165
2020 08 07 18  22 27 37.016   +06 50 44.37  .40093 1.3765 150.2 20.9 21.6 165
2020 08 07 19  22 27 41.201   +06 50 07.46  .40067 1.3763 150.2 20.9 21.9 165
2020 08 07 20  22 27 45.388   +06 49 30.45  .40040 1.3761 150.3 20.9 22.2 165
2020 08 07 21  22 27 49.577   +06 48 53.32  .40014 1.3759 150.3 20.9 22.5 165
2020 08 07 22  22 27 53.768   +06 48 16.09  .39988 1.3758 150.3 20.9 22.7 165
2020 08 07 23  22 27 57.961   +06 47 38.74  .39962 1.3756 150.4 20.9 23.0 165
2020 08 08 00  22 28 02.157   +06 47 01.29  .39936 1.3754 150.4 20.9 23.3 165
2020 08 08 01  22 28 06.354   +06 46 23.72  .39909 1.3753 150.4 20.9 23.6 165
2020 08 08 02  22 28 10.553   +06 45 46.04  .39883 1.3751 150.5 20.9 23.9 165
2020 08 08 03  22 28 14.754   +06 45 08.26  .39857 1.3749 150.5 20.9 24.1 165
2020 08 08 04  22 28 18.957   +06 44 30.36  .39831 1.3747 150.5 20.9 24.4 165
2020 08 08 05  22 28 23.163   +06 43 52.35  .39805 1.3746 150.6 20.9 24.7 165
2020 08 08 06  22 28 27.370   +06 43 14.23  .39779 1.3744 150.6 20.9 25.0 165